TimeCST,TemperatureF,Dew PointF,Humidity,Sea Level PressureIn,VisibilityMPH,Wind Direction,Wind SpeedMPH,Gust SpeedMPH,PrecipitationIn,Events,Conditions,WindDirDegrees,DateUTC
12:00 AM,59.0,55.4,88,30.27,6.2,North,11.5,-,N/A,,Scattered Clouds,360,2014-01-05 06:00:00
1:00 AM,59.0,55.4,88,30.27,6.2,North,9.2,-,N/A,,Scattered Clouds,360,2014-01-05 07:00:00
2:00 AM,59.0,55.4,88,30.24,6.2,North,11.5,-,N/A,,Scattered Clouds,360,2014-01-05 08:00:00
3:00 AM,59.0,55.4,88,30.24,6.2,NNE,11.5,-,N/A,,Scattered Clouds,30,2014-01-05 09:00:00
4:00 AM,57.2,55.4,94,30.24,6.2,NNE,9.2,-,N/A,,Mostly Cloudy,30,2014-01-05 10:00:00
5:00 AM,59.0,55.4,88,30.24,6.2,NNE,9.2,-,N/A,,Mostly Cloudy,30,2014-01-05 11:00:00
6:00 AM,59,54,78,29.97,25,NNE,6.9,,,,Mostly Cloudy,20,2014-01-05 12:00:00
6:00 AM,59.0,53.6,82,30.24,6.2,NNE,6.9,-,N/A,,Mostly Cloudy,20,2014-01-05 12:00:00
7:00 AM,57.2,53.6,88,30.27,6.2,NNE,6.9,-,N/A,,Partly Cloudy,20,2014-01-05 13:00:00
8:00 AM,60.8,55.4,82,30.30,6.2,NNE,9.2,-,N/A,,Partly Cloudy,30,2014-01-05 14:00:00
9:00 AM,64.4,55.4,73,30.33,6.2,North,4.6,-,N/A,,Partly Cloudy,360,2014-01-05 15:00:00
10:00 AM,69.8,53.6,56,30.33,6.2,NNE,4.6,-,N/A,,Partly Cloudy,20,2014-01-05 16:00:00
11:00 AM,73.4,55.4,53,30.30,6.2,Variable,3.5,-,N/A,,Partly Cloudy,0,2014-01-05 17:00:00
12:00 PM,75.2,55.4,50,30.27,6.2,South,6.9,-,N/A,,Partly Cloudy,180,2014-01-05 18:00:00
1:00 PM,77.0,53.6,44,30.24,6.2,South,4.6,-,N/A,,Scattered Clouds,180,2014-01-05 19:00:00
2:00 PM,78.8,51.8,39,30.21,6.2,South,11.5,-,N/A,,Scattered Clouds,180,2014-01-05 20:00:00
3:00 PM,77.0,53.6,44,30.18,6.2,South,13.8,-,N/A,,Scattered Clouds,180,2014-01-05 21:00:00
4:00 PM,75.2,55.4,50,30.21,6.2,South,9.2,-,N/A,,Scattered Clouds,180,2014-01-05 22:00:00
5:00 PM,73.4,57.2,57,30.21,6.2,South,11.5,-,N/A,,Partly Cloudy,180,2014-01-05 23:00:00
6:00 PM,70,61,65,29.93,25,South,6.9,,,,,180,2014-01-06 00:00:00
6:00 PM,69.8,60.8,73,30.24,-9999.0,South,6.9,-,N/A,,Clear,180,2014-01-06 00:00:00
7:00 PM,68.0,60.8,78,30.24,-9999.0,South,4.6,-,N/A,,Clear,180,2014-01-06 01:00:00
8:00 PM,66.2,60.8,83,30.24,-9999.0,Calm,Calm,-,N/A,,Clear,0,2014-01-06 02:00:00
9:00 PM,64.4,57.2,77,59.81,-9999.0,Calm,Calm,-,N/A,,Clear,0,2014-01-06 03:00:00
10:00 PM,62.6,57.2,82,30.27,-9999.0,Calm,Calm,-,N/A,,Clear,0,2014-01-06 04:00:00
11:00 PM,62.6,57.2,82,30.27,-9999.0,North,4.6,-,N/A,,Clear,360,2014-01-06 05:00:00